When you browse on this site, cookies collect data to enhance your experience and personalize the content and advertising you see.
Visit our Privacy Policy to learn more. By continuing to use the site, you agree to this use of cookies and data.

Météo par heure à Krutovka

Ce jour, 5 Août, Mercredi

Heure Température Précipitation Vent Pression Humidité
00:00 +16°C° 0 mm 2 m/s 749 mmHg 80%
01:00 +15°C° 0 mm 2 m/s 749 mmHg 82%
02:00 +15°C° 0 mm 2 m/s 749 mmHg 85%
03:00 +15°C° 0 mm 2 m/s 749 mmHg 85%
04:00 +16°C° 0 mm 1 m/s 749 mmHg 85%
05:00 +16°C° 0 mm 1 m/s 749 mmHg 86%
06:00 +19°C° 0 mm 1 m/s 749 mmHg 80%
07:00 +19°C° 0 mm 2 m/s 749 mmHg 75%
08:00 +21°C° 0 mm 2 m/s 749 mmHg 70%
09:00 +23°C° 0 mm 2 m/s 749 mmHg 66%
10:00 +24°C° 0 mm 2 m/s 749 mmHg 62%
11:00 +25°C° 0 mm 1 m/s 749 mmHg 57%
12:00 +26°C° 0 mm 1 m/s 749 mmHg 56%
13:00 +26°C° 0 mm 1 m/s 749 mmHg 54%
14:00 +27°C° 0 mm 1 m/s 749 mmHg 52%
15:00 +25°C° 0 mm 0 m/s 749 mmHg 55%
16:00 +24°C° 0 mm 0 m/s 749 mmHg 57%
17:00 +24°C° 0 mm 0 m/s 749 mmHg 59%
18:00 +22°C° 0 mm 0 m/s 749 mmHg 64%
19:00 +20°C° 0 mm 0 m/s 749 mmHg 70%
20:00 +20°C° 0 mm 1 m/s 749 mmHg 75%
21:00 +18°C° 0 mm 0 m/s 749 mmHg 77%
22:00 +17°C° 0 mm 0 m/s 749 mmHg 79%
23:00 +17°C° 0 mm 0 m/s 749 mmHg 81%

Demain, 6 Août, Jeudi

Heure Température Précipitation Vent Pression Humidité
00:00 +17°C° 0 mm 0 m/s 750 mmHg 82%
01:00 +16°C° 0 mm 0 m/s 750 mmHg 83%
02:00 +16°C° 0 mm 0 m/s 750 mmHg 84%
03:00 +16°C° 0 mm 0 m/s 750 mmHg 83%
04:00 +16°C° 0 mm 0 m/s 750 mmHg 83%
05:00 +16°C° 0 mm 0 m/s 750 mmHg 83%
06:00 +18°C° 0 mm 0 m/s 750 mmHg 78%
07:00 +20°C° 0 mm 0 m/s 750 mmHg 73%
08:00 +24°C° 0 mm 1 m/s 750 mmHg 68%
09:00 +25°C° 0 mm 1 m/s 750 mmHg 64%
10:00 +26°C° 0 mm 1 m/s 750 mmHg 61%
11:00 +27°C° 0 mm 2 m/s 750 mmHg 57%
12:00 +27°C° 0 mm 2 m/s 750 mmHg 57%
13:00 +27°C° 0 mm 2 m/s 750 mmHg 57%
14:00 +28°C° 0 mm 2 m/s 750 mmHg 57%
15:00 +27°C° 0.1 mm 2 m/s 750 mmHg 60%
16:00 +27°C° 0.1 mm 2 m/s 750 mmHg 63%
17:00 +27°C° 0.1 mm 2 m/s 749 mmHg 66%
18:00 +25°C° 0.1 mm 2 m/s 749 mmHg 72%
19:00 +24°C° 0.1 mm 2 m/s 750 mmHg 79%
20:00 +21°C° 0.1 mm 2 m/s 750 mmHg 85%
21:00 +20°C° 0 mm 3 m/s 750 mmHg 88%
22:00 +20°C° 0 mm 3 m/s 750 mmHg 91%
23:00 +19°C° 0 mm 3 m/s 750 mmHg 94%

Après-demain, 7 Août, Vendredi

Heure Température Précipitation Vent Pression Humidité
00:00 +18°C° 0 mm 3 m/s 750 mmHg 93%
01:00 +17°C° 0 mm 3 m/s 750 mmHg 92%
02:00 +16°C° 0 mm 3 m/s 750 mmHg 91%
03:00 +16°C° 0 mm 3 m/s 750 mmHg 92%
04:00 +16°C° 0 mm 3 m/s 751 mmHg 92%
05:00 +15°C° 0 mm 4 m/s 751 mmHg 93%
06:00 +17°C° 0 mm 4 m/s 751 mmHg 87%
07:00 +19°C° 0 mm 5 m/s 751 mmHg 81%
08:00 +20°C° 0 mm 5 m/s 751 mmHg 75%
09:00 +21°C° 0 mm 5 m/s 751 mmHg 69%
10:00 +22°C° 0 mm 5 m/s 752 mmHg 63%
11:00 +23°C° 0 mm 6 m/s 752 mmHg 58%
12:00 +23°C° 0 mm 6 m/s 752 mmHg 57%
13:00 +23°C° 0 mm 5 m/s 751 mmHg 57%
14:00 +25°C° 0 mm 5 m/s 751 mmHg 57%
15:00 +23°C° 0 mm 5 m/s 751 mmHg 60%
16:00 +23°C° 0 mm 4 m/s 751 mmHg 63%
17:00 +22°C° 0 mm 4 m/s 751 mmHg 66%
18:00 +21°C° 0 mm 4 m/s 751 mmHg 70%
19:00 +19°C° 0 mm 3 m/s 751 mmHg 73%
20:00 +18°C° 0 mm 3 m/s 751 mmHg 77%
21:00 +17°C° 0 mm 3 m/s 751 mmHg 78%
22:00 +17°C° 0 mm 3 m/s 751 mmHg 78%
23:00 +16°C° 0 mm 3 m/s 751 mmHg 79%

8 Août, Samedi

Heure Température Précipitation Vent Pression Humidité
00:00 +14°C° 0 mm 3 m/s 751 mmHg 82%
01:00 +14°C° 0 mm 3 m/s 751 mmHg 84%
02:00 +14°C° 0 mm 2 m/s 751 mmHg 86%
03:00 +13°C° 0 mm 3 m/s 751 mmHg 87%
04:00 +13°C° 0 mm 3 m/s 752 mmHg 88%
05:00 +13°C° 0 mm 3 m/s 752 mmHg 88%
06:00 +16°C° 0 mm 3 m/s 752 mmHg 83%
07:00 +18°C° 0 mm 3 m/s 751 mmHg 77%
08:00 +19°C° 0 mm 3 m/s 751 mmHg 72%
09:00 +21°C° 0 mm 3 m/s 751 mmHg 66%
10:00 +22°C° 0 mm 3 m/s 751 mmHg 60%
11:00 +24°C° 0 mm 3 m/s 751 mmHg 55%
12:00 +24°C° 0 mm 3 m/s 751 mmHg 54%
13:00 +25°C° 0 mm 3 m/s 750 mmHg 53%
14:00 +25°C° 0 mm 3 m/s 750 mmHg 52%
15:00 +25°C° 0 mm 3 m/s 750 mmHg 55%
16:00 +24°C° 0 mm 3 m/s 749 mmHg 59%
17:00 +24°C° 0 mm 2 m/s 749 mmHg 63%
18:00 +21°C° 0 mm 2 m/s 749 mmHg 66%
19:00 +20°C° 0 mm 1 m/s 749 mmHg 70%
20:00 +18°C° 0 mm 1 m/s 749 mmHg 74%
21:00 +18°C° 0 mm 1 m/s 749 mmHg 76%
22:00 +16°C° 0 mm 1 m/s 749 mmHg 77%
23:00 +16°C° 0 mm 1 m/s 748 mmHg 78%

9 Août, Dimanche

Heure Température Précipitation Vent Pression Humidité
00:00 +16°C° 0 mm 2 m/s 748 mmHg 80%
01:00 +15°C° 0 mm 2 m/s 748 mmHg 81%
02:00 +15°C° 0 mm 2 m/s 748 mmHg 83%
03:00 +15°C° 0 mm 2 m/s 748 mmHg 84%
04:00 +15°C° 0 mm 2 m/s 747 mmHg 85%
05:00 +15°C° 0 mm 2 m/s 747 mmHg 86%
06:00 +17°C° 0 mm 2 m/s 747 mmHg 82%
07:00 +18°C° 0 mm 3 m/s 747 mmHg 78%
08:00 +20°C° 0 mm 3 m/s 747 mmHg 74%
09:00 +21°C° 0 mm 3 m/s 747 mmHg 70%
10:00 +24°C° 0 mm 3 m/s 747 mmHg 66%
11:00 +25°C° 0 mm 4 m/s 747 mmHg 61%
12:00 +25°C° 0 mm 3 m/s 746 mmHg 59%
13:00 +26°C° 0 mm 3 m/s 746 mmHg 58%
14:00 +26°C° 0 mm 3 m/s 746 mmHg 56%
15:00 +25°C° 0.1 mm 3 m/s 746 mmHg 60%
16:00 +25°C° 0.1 mm 3 m/s 745 mmHg 64%
17:00 +24°C° 0.1 mm 3 m/s 745 mmHg 69%
18:00 +22°C° 0 mm 3 m/s 745 mmHg 74%
19:00 +20°C° 0 mm 2 m/s 745 mmHg 79%
20:00 +18°C° 0 mm 2 m/s 745 mmHg 84%
21:00 +18°C° 0 mm 2 m/s 746 mmHg 86%
22:00 +17°C° 0 mm 2 m/s 746 mmHg 88%
23:00 +16°C° 0 mm 3 m/s 746 mmHg 89%

10 Août, Lundi

Heure Température Précipitation Vent Pression Humidité
00:00 +16°C° 0 mm 3 m/s 746 mmHg 90%
01:00 +14°C° 0 mm 3 m/s 746 mmHg 90%
02:00 +15°C° 0 mm 2 m/s 746 mmHg 91%
03:00 +13°C° 0 mm 3 m/s 746 mmHg 91%
04:00 +13°C° 0 mm 3 m/s 746 mmHg 91%
05:00 +13°C° 0 mm 3 m/s 746 mmHg 91%
06:00 +14°C° 0 mm 3 m/s 747 mmHg 84%
07:00 +15°C° 0 mm 4 m/s 747 mmHg 78%
08:00 +17°C° 0 mm 5 m/s 747 mmHg 71%
09:00 +19°C° 0 mm 5 m/s 747 mmHg 67%
10:00 +19°C° 0 mm 5 m/s 747 mmHg 64%
11:00 +20°C° 0 mm 5 m/s 747 mmHg 61%
12:00 +21°C° 0 mm 5 m/s 747 mmHg 59%
13:00 +21°C° 0 mm 5 m/s 747 mmHg 58%
14:00 +22°C° 0 mm 5 m/s 747 mmHg 56%
15:00 +21°C° 0 mm 4 m/s 747 mmHg 58%
16:00 +21°C° 0 mm 4 m/s 747 mmHg 60%
17:00 +20°C° 0 mm 3 m/s 747 mmHg 62%
18:00 +19°C° 0 mm 3 m/s 747 mmHg 66%
19:00 +17°C° 0 mm 2 m/s 747 mmHg 70%
20:00 +16°C° 0 mm 2 m/s 747 mmHg 73%
21:00 +15°C° 0 mm 1 m/s 747 mmHg 75%
22:00 +15°C° 0 mm 1 m/s 747 mmHg 76%
23:00 +15°C° 0 mm 1 m/s 747 mmHg 78%
Voir plus